Zurück zum Katalog

STARLINK-4563

AktivKommunikationVLEO
NORAD 53561·PAYLOAD·🇺🇸 United States

Gestartet Aug 19, 2022 von Cape Canaveral Space Force Station

Loading…

Nächste Überflüge (nächste 24 Stunden)

TLE

AktuellSource: CelesTrak SupGP

Epoche: Sep 15, 2026, 02:53 UTC

1 53561C 22101AL  26258.12062500  .00000722  00000+0  21339-4 0  2585
2 53561  53.1570 282.5170 0001326  99.8740  74.6595 15.34379099    14

Verfolge STARLINK-4563 in Echtzeit mit AllMySat

Download on the App Store